ATLAS 5 CENTAUR DEB, 44668

Orbit data source: Space-Track

ATLAS 5 CENTAUR DEB, 44668 is space debris in HEO originally from a launch on Wed, 17 Oct 2018 UTC launched from the Air Force Eastern Test Range (AFETR). Debris objects in space refer to the collection of defunct objects orbiting the Earth. Examples of debris include non-operational satellites, rocket bodies, and fragments generated from explosions, collisions, or faulty payload assembly.

Loading next visibility...
Identifier
44668, 2018-079AE
Orbit
HEO
Country
Flag of USUS
Related business
Flag of USUnited Launch Alliance/Lockheed Martin (US)
Manufacturer
ULA Decatur
Mission
Spacecraft
Bus & Motor
Unknown
Mass
Unknown
Launch date (UTC)
2018-10-17 (8 years ago)
Launch vehicle
Unknown
Launch site
Air Force Eastern Test Range (AFETR)
Object type
Payload
Rocket body
Debris
Shape & HBR
Unknown shape, 1.1 m
Radar Cross Section
RCS unknown

Expand to show TLE details & history
Last TLE update: 19 hours ago

TLE from 19 hours ago
0 ATLAS 5 CENTAUR DEB
1 44668U 18079AE  26126.87769782 -.00000154  00000-0  00000-0 0  9995
2 44668  13.4367   2.6982 4567118  24.2114 351.9080  1.97468973 50013
Epoch: 2026-05-06T21:03Z
TLE epoch observation values (Epoch: 2026-05-06T21:03:53.091Z)
Latitude
-0.00005°
Longitude
-178.02405°
Altitude
8,598.905 km
Speed
6.195 km/s
True Right ascension
00h 10m 42s
True Declination
0° 00' 00"
Sunlit
Object was in daylight at epoch
Visualization orbit readout
Latitude
Unknown
Longitude
Unknown
Altitude
Unknown
Speed
Unknown
Apparent Right ascension
Unknown
Apparent Declination
Unknown
Sunlit
N/A
Visualization observer readout
Local Sidereal Time
00:10:21
Azimuth
Unknown
Elevation
Unknown
Doppler factor
Unknown
Orbital elements
Apogee altitude
32,718.959 km
Perigee altitude
8,203.327 km
Semi-major axis
26,839.28 km
Eccentricity
0.45671
Inclination
13.4367°
RAAN
2.6982°
Arg. of periapsis
24.2114°
True anomaly
336.05491°
Mean anomaly
351.908°
Eccentric anomaly
345.24223°
Mean motion
0.49361 °/min
Orbital period
729.32 mins
BSTAR
0
Loading maneuver chart data...
Computing Atmospheric mass density...

Documentation

Showing up to 5 results
|